Time,TemperatureF,DewpointF,PressureIn,WindDirection,WindDirectionDegrees,WindSpeedMPH,WindSpeedGustMPH,Humidity,HourlyPrecipIn,Conditions,Clouds,dailyrainin,SoftwareType,DateUTC
2013-01-01 00:03:00,-4.8,-9.9,30.35,WNW,299,0.0,0.0,78,0.00,,,0.00,WUHU216DAVISVP2,2013-01-01 06:03:00,
2013-01-01 00:08:00,-4.9,-10.0,30.35,WNW,299,0.0,0.0,78,0.00,,,0.00,WUHU216DAVISVP2,2013-01-01 06:08:00,
2013-01-01 00:13:00,-4.9,-10.0,30.35,WNW,299,0.0,0.0,78,0.00,,,0.00,WUHU216DAVISVP2,2013-01-01 06:13:00,
2013-01-01 00:18:00,-5.0,-10.1,30.35,WNW,298,0.0,0.0,78,0.00,,,0.00,WUHU216DAVISVP2,2013-01-01 06:18:00,
2013-01-01 00:23:00,-5.2,-10.3,30.35,WNW,298,0.0,0.0,78,0.00,,,0.00,WUHU216DAVISVP2,2013-01-01 06:23:00,
2013-01-01 00:28:00,-5.3,-10.4,30.35,WNW,299,0.0,0.0,78,0.00,,,0.00,WUHU216DAVISVP2,2013-01-01 06:28:00,
2013-01-01 00:33:00,-5.4,-10.5,30.35,WNW,299,0.0,0.0,78,0.00,,,0.00,WUHU216DAVISVP2,2013-01-01 06:33:00,
2013-01-01 00:38:00,-5.5,-10.6,30.35,WNW,299,0.0,0.0,78,0.00,,,0.00,WUHU216DAVISVP2,2013-01-01 06:38:00,
2013-01-01 00:43:00,-5.6,-10.7,30.35,WNW,299,0.0,0.0,78,0.00,,,0.00,WUHU216DAVISVP2,2013-01-01 06:43:00,
2013-01-01 00:48:00,-5.6,-10.9,30.35,WNW,298,0.0,0.0,77,0.00,,,0.00,WUHU216DAVISVP2,2013-01-01 06:48:00,
2013-01-01 00:53:00,-5.7,-11.0,30.35,WNW,299,0.0,0.0,77,0.00,,,0.00,WUHU216DAVISVP2,2013-01-01 06:53:00,
2013-01-01 00:58:00,-5.7,-10.8,30.35,WNW,299,0.0,0.0,78,0.00,,,0.00,WUHU216DAVISVP2,2013-01-01 06:58:00,
2013-01-01 01:03:00,-5.7,-10.8,30.35,WNW,298,0.0,0.0,78,0.00,,,0.00,WUHU216DAVISVP2,2013-01-01 07:03:00,
2013-01-01 01:08:00,-5.7,-10.8,30.34,WNW,299,0.0,0.0,78,0.00,,,0.00,WUHU216DAVISVP2,2013-01-01 07:08:00,
2013-01-01 01:13:00,-5.7,-10.8,30.34,WNW,298,0.0,0.0,78,0.00,,,0.00,WUHU216DAVISVP2,2013-01-01 07:13:00,
2013-01-01 01:18:00,-5.7,-10.8,30.34,WNW,297,0.0,0.0,78,0.00,,,0.00,WUHU216DAVISVP2,2013-01-01 07:18:00,
2013-01-01 01:23:00,-5.7,-10.8,30.34,WNW,296,0.0,0.0,78,0.00,,,0.00,WUHU216DAVISVP2,2013-01-01 07:23:00,
2013-01-01 01:28:00,-5.7,-10.8,30.34,WNW,294,0.0,0.0,78,0.00,,,0.00,WUHU216DAVISVP2,2013-01-01 07:28:00,
2013-01-01 01:33:00,-5.7,-10.8,30.34,WNW,290,0.0,0.0,78,0.00,,,0.00,WUHU216DAVISVP2,2013-01-01 07:33:00,
2013-01-01 01:38:00,-5.8,-10.9,30.34,WNW,290,0.0,0.0,78,0.00,,,0.00,WUHU216DAVISVP2,2013-01-01 07:38:00,
2013-01-01 01:43:00,-5.9,-11.0,30.34,WNW,290,0.0,0.0,78,0.00,,,0.00,WUHU216DAVISVP2,2013-01-01 07:43:00,
2013-01-01 01:48:00,-6.0,-11.3,30.34,WNW,290,0.0,0.0,77,0.00,,,0.00,WUHU216DAVISVP2,2013-01-01 07:48:00,
2013-01-01 01:53:00,-6.1,-11.2,30.34,WNW,290,0.0,0.0,78,0.00,,,0.00,WUHU216DAVISVP2,2013-01-01 07:53:00,
2013-01-01 01:58:00,-6.1,-11.2,30.33,SSW,201,0.0,0.0,78,0.00,,,0.00,WUHU216DAVISVP2,2013-01-01 07:58:00,
2013-01-01 02:03:00,-6.2,-11.3,30.33,SSW,200,0.0,0.0,78,0.00,,,0.00,WUHU216DAVISVP2,2013-01-01 08:03:00,
2013-01-01 02:08:00,-6.3,-11.4,30.32,SSW,202,1.0,3.0,78,0.00,,,0.00,WUHU216DAVISVP2,2013-01-01 08:08:00,
2013-01-01 02:13:00,-6.4,-11.7,30.33,SSW,198,2.0,3.0,77,0.00,,,0.00,WUHU216DAVISVP2,2013-01-01 08:13:00,
2013-01-01 02:18:00,-6.5,-11.8,30.32,SSW,198,0.0,2.0,77,0.00,,,0.00,WUHU216DAVISVP2,2013-01-01 08:18:00,
2013-01-01 02:23:00,-6.6,-11.9,30.33,SSW,198,0.0,1.0,77,0.00,,,0.00,WUHU216DAVISVP2,2013-01-01 08:23:00,
2013-01-01 02:28:00,-6.7,-12.0,30.32,SSW,198,0.0,0.0,77,0.00,,,0.00,WUHU216DAVISVP2,2013-01-01 08:28:00,
2013-01-01 02:33:00,-6.7,-12.0,30.32,SSW,198,0.0,1.0,77,0.00,,,0.00,WUHU216DAVISVP2,2013-01-01 08:33:00,
2013-01-01 02:38:00,-6.8,-12.1,30.33,SSW,198,0.0,1.0,77,0.00,,,0.00,WUHU216DAVISVP2,2013-01-01 08:38:00,
2013-01-01 02:43:00,-6.8,-12.1,30.32,SSW,198,0.0,1.0,77,0.00,,,0.00,WUHU216DAVISVP2,2013-01-01 08:43:00,
2013-01-01 02:48:00,-6.8,-12.1,30.32,SSW,198,0.0,1.0,77,0.00,,,0.00,WUHU216DAVISVP2,2013-01-01 08:48:00,
2013-01-01 02:53:00,-6.9,-12.2,30.32,SSW,198,0.0,0.0,77,0.00,,,0.00,WUHU216DAVISVP2,2013-01-01 08:53:00,
2013-01-01 02:58:00,-6.9,-12.2,30.33,SSW,198,0.0,0.0,77,0.00,,,0.00,WUHU216DAVISVP2,2013-01-01 08:58:00,
2013-01-01 03:03:00,-6.9,-12.2,30.33,SSW,198,0.0,0.0,77,0.00,,,0.00,WUHU216DAVISVP2,2013-01-01 09:03:00,
2013-01-01 03:08:00,-6.9,-12.2,30.32,SSW,198,0.0,0.0,77,0.00,,,0.00,WUHU216DAVISVP2,2013-01-01 09:08:00,
2013-01-01 03:13:00,-7.0,-12.3,30.33,SSW,198,0.0,0.0,77,0.00,,,0.00,WUHU216DAVISVP2,2013-01-01 09:13:00,
2013-01-01 03:18:00,-7.0,-12.3,30.32,SSW,198,0.0,0.0,77,0.00,,,0.00,WUHU216DAVISVP2,2013-01-01 09:18:00,
2013-01-01 03:23:00,-6.9,-12.2,30.33,SSW,198,0.0,0.0,77,0.00,,,0.00,WUHU216DAVISVP2,2013-01-01 09:23:00,
2013-01-01 03:28:00,-6.8,-12.1,30.33,SSW,198,0.0,0.0,77,0.00,,,0.00,WUHU216DAVISVP2,2013-01-01 09:28:00,
2013-01-01 03:33:00,-6.5,-11.8,30.32,SSW,198,0.0,0.0,77,0.00,,,0.00,WUHU216DAVISVP2,2013-01-01 09:33:00,
2013-01-01 03:38:00,-6.5,-11.8,30.32,SSW,198,0.0,0.0,77,0.00,,,0.00,WUHU216DAVISVP2,2013-01-01 09:38:00,
2013-01-01 03:43:00,-6.3,-11.6,30.32,SSW,198,0.0,0.0,77,0.00,,,0.00,WUHU216DAVISVP2,2013-01-01 09:43:00,
2013-01-01 03:48:00,-6.2,-11.5,30.32,SSW,198,0.0,0.0,77,0.00,,,0.00,WUHU216DAVISVP2,2013-01-01 09:48:00,
2013-01-01 03:53:00,-6.0,-11.1,30.32,SSW,198,0.0,0.0,78,0.00,,,0.00,WUHU216DAVISVP2,2013-01-01 09:53:00,
2013-01-01 03:58:00,-5.8,-11.1,30.32,SSW,198,0.0,0.0,77,0.00,,,0.00,WUHU216DAVISVP2,2013-01-01 09:58:00,
2013-01-01 04:03:00,-5.6,-10.9,30.33,SSW,198,0.0,0.0,77,0.00,,,0.00,WUHU216DAVISVP2,2013-01-01 10:03:00,
2013-01-01 04:08:00,-5.4,-10.5,30.33,SSW,198,0.0,0.0,78,0.00,,,0.00,WUHU216DAVISVP2,2013-01-01 10:08:00,
2013-01-01 04:13:00,-5.3,-10.6,30.33,SSW,198,0.0,0.0,77,0.00,,,0.00,WUHU216DAVISVP2,2013-01-01 10:13:00,
2013-01-01 04:18:00,-5.2,-10.5,30.33,SSW,198,0.0,0.0,77,0.00,,,0.00,WUHU216DAVISVP2,2013-01-01 10:18:00,
2013-01-01 04:23:00,-4.9,-10.0,30.33,SSW,198,0.0,0.0,78,0.00,,,0.00,WUHU216DAVISVP2,2013-01-01 10:23:00,
2013-01-01 04:28:00,-4.7,-9.8,30.32,SE,141,0.0,3.0,78,0.00,,,0.00,WUHU216DAVISVP2,2013-01-01 10:28:00,
2013-01-01 04:33:00,-4.6,-9.7,30.33,SE,142,0.0,3.0,78,0.00,,,0.00,WUHU216DAVISVP2,2013-01-01 10:33:00,
2013-01-01 04:38:00,-4.3,-9.4,30.33,SE,142,0.0,2.0,78,0.00,,,0.00,WUHU216DAVISVP2,2013-01-01 10:38:00,
2013-01-01 04:43:00,-4.0,-9.1,30.32,SSE,153,0.0,2.0,78,0.00,,,0.00,WUHU216DAVISVP2,2013-01-01 10:43:00,
2013-01-01 04:48:00,-3.9,-9.0,30.32,SSE,163,0.0,3.0,78,0.00,,,0.00,WUHU216DAVISVP2,2013-01-01 10:48:00,
2013-01-01 04:53:00,-3.8,-8.9,30.32,South,171,0.0,4.0,78,0.00,,,0.00,WUHU216DAVISVP2,2013-01-01 10:53:00,
2013-01-01 04:58:00,-3.6,-8.7,30.32,South,175,0.0,4.0,78,0.00,,,0.00,WUHU216DAVISVP2,2013-01-01 10:58:00,
2013-01-01 05:03:00,-3.4,-8.5,30.32,SSE,168,0.0,4.0,78,0.00,,,0.00,WUHU216DAVISVP2,2013-01-01 11:03:00,
2013-01-01 05:08:00,-3.3,-8.4,30.32,South,183,0.0,4.0,78,0.00,,,0.00,WUHU216DAVISVP2,2013-01-01 11:08:00,
2013-01-01 05:13:00,-3.2,-8.3,30.31,South,178,0.0,5.0,78,0.00,,,0.00,WUHU216DAVISVP2,2013-01-01 11:13:00,
2013-01-01 05:18:00,-3.1,-8.2,30.31,South,176,0.0,5.0,78,0.00,,,0.00,WUHU216DAVISVP2,2013-01-01 11:18:00,
2013-01-01 05:23:00,-2.8,-7.9,30.32,South,176,0.0,2.0,78,0.00,,,0.00,WUHU216DAVISVP2,2013-01-01 11:23:00,
2013-01-01 05:28:00,-2.5,-7.7,30.31,South,175,0.0,2.0,78,0.00,,,0.00,WUHU216DAVISVP2,2013-01-01 11:28:00,
2013-01-01 05:33:00,-2.2,-7.4,30.31,South,176,0.0,2.0,78,0.00,,,0.00,WUHU216DAVISVP2,2013-01-01 11:33:00,
2013-01-01 05:38:00,-2.0,-7.2,30.31,South,178,1.0,4.0,78,0.00,,,0.00,WUHU216DAVISVP2,2013-01-01 11:38:00,
2013-01-01 05:43:00,-1.7,-6.9,30.30,South,169,1.0,4.0,78,0.00,,,0.00,WUHU216DAVISVP2,2013-01-01 11:43:00,
2013-01-01 05:48:00,-1.4,-6.6,30.30,South,186,1.0,4.0,78,0.00,,,0.00,WUHU216DAVISVP2,2013-01-01 11:48:00,
2013-01-01 05:53:00,-1.1,-6.3,30.30,South,180,0.0,4.0,78,0.00,,,0.00,WUHU216DAVISVP2,2013-01-01 11:53:00,
2013-01-01 05:58:00,-0.9,-6.1,30.30,South,179,0.0,4.0,78,0.00,,,0.00,WUHU216DAVISVP2,2013-01-01 11:58:00,
2013-01-01 06:03:00,-0.7,-5.9,30.30,South,190,0.0,3.0,78,0.00,,,0.00,WUHU216DAVISVP2,2013-01-01 12:03:00,
2013-01-01 06:08:00,-0.5,-5.7,30.29,South,179,0.0,5.0,78,0.00,,,0.00,WUHU216DAVISVP2,2013-01-01 12:08:00,
2013-01-01 06:13:00,-0.2,-5.2,30.29,South,172,0.0,5.0,79,0.00,,,0.00,WUHU216DAVISVP2,2013-01-01 12:13:00,
2013-01-01 06:18:00,0.0,-5.0,30.29,South,183,0.0,3.0,79,0.00,,,0.00,WUHU216DAVISVP2,2013-01-01 12:18:00,
2013-01-01 06:23:00,0.2,-5.0,30.29,South,182,0.0,3.0,78,0.00,,,0.00,WUHU216DAVISVP2,2013-01-01 12:23:00,
2013-01-01 06:28:00,0.4,-4.8,30.29,South,170,2.0,3.0,78,0.00,,,0.00,WUHU216DAVISVP2,2013-01-01 12:28:00,
2013-01-01 06:33:00,0.5,-4.5,30.29,South,178,0.0,5.0,79,0.00,,,0.00,WUHU216DAVISVP2,2013-01-01 12:33:00,
2013-01-01 06:38:00,0.7,-4.3,30.29,South,189,1.0,7.0,79,0.00,,,0.00,WUHU216DAVISVP2,2013-01-01 12:38:00,
2013-01-01 06:43:00,0.8,-4.4,30.29,South,181,1.0,7.0,78,0.00,,,0.00,WUHU216DAVISVP2,2013-01-01 12:43:00,
2013-01-01 06:48:00,0.9,-4.3,30.28,South,180,3.0,4.0,78,0.00,,,0.00,WUHU216DAVISVP2,2013-01-01 12:48:00,
2013-01-01 06:53:00,1.0,-4.2,30.28,South,173,3.0,6.0,78,0.00,,,0.00,WUHU216DAVISVP2,2013-01-01 12:53:00,
2013-01-01 06:58:00,1.1,-4.1,30.28,SSE,157,0.0,6.0,78,0.00,,,0.00,WUHU216DAVISVP2,2013-01-01 12:58:00,
2013-01-01 07:03:00,1.3,-3.7,30.28,South,183,0.0,3.0,79,0.00,,,0.00,WUHU216DAVISVP2,2013-01-01 13:03:00,
2013-01-01 07:08:00,1.5,-3.5,30.28,South,182,0.0,3.0,79,0.00,,,0.00,WUHU216DAVISVP2,2013-01-01 13:08:00,
2013-01-01 07:13:00,1.7,-3.3,30.28,SSW,198,0.0,6.0,79,0.00,,,0.00,WUHU216DAVISVP2,2013-01-01 13:13:00,
2013-01-01 07:18:00,1.8,-3.2,30.27,South,188,5.0,10.0,79,0.00,,,0.00,WUHU216DAVISVP2,2013-01-01 13:18:00,
2013-01-01 07:23:00,1.9,-3.1,30.27,South,180,0.0,10.0,79,0.00,,,0.00,WUHU216DAVISVP2,2013-01-01 13:23:00,
2013-01-01 07:28:00,2.1,-2.9,30.27,South,190,1.0,7.0,79,0.00,,,0.00,WUHU216DAVISVP2,2013-01-01 13:28:00,
2013-01-01 07:33:00,2.2,-2.8,30.27,South,190,0.0,7.0,79,0.00,,,0.00,WUHU216DAVISVP2,2013-01-01 13:33:00,
2013-01-01 07:38:00,2.4,-2.6,30.27,South,189,1.0,5.0,79,0.00,,,0.00,WUHU216DAVISVP2,2013-01-01 13:38:00,
2013-01-01 07:43:00,2.5,-2.5,30.27,South,182,0.0,5.0,79,0.00,,,0.00,WUHU216DAVISVP2,2013-01-01 13:43:00,
2013-01-01 07:48:00,2.5,-2.5,30.27,South,184,0.0,5.0,79,0.00,,,0.00,WUHU216DAVISVP2,2013-01-01 13:48:00,
2013-01-01 07:53:00,2.6,-2.4,30.26,South,187,5.0,6.0,79,0.00,,,0.00,WUHU216DAVISVP2,2013-01-01 13:53:00,
2013-01-01 07:58:00,2.6,-2.4,30.27,South,191,3.0,6.0,79,0.00,,,0.00,WUHU216DAVISVP2,2013-01-01 13:58:00,
2013-01-01 08:03:00,2.7,-2.3,30.26,SSW,200,7.0,9.0,79,0.00,,,0.00,WUHU216DAVISVP2,2013-01-01 14:03:00,
2013-01-01 08:08:00,2.7,-2.3,30.26,SSW,200,0.0,9.0,79,0.00,,,0.00,WUHU216DAVISVP2,2013-01-01 14:08:00,
2013-01-01 08:13:00,2.8,-2.2,30.26,SSW,198,0.0,6.0,79,0.00,,,0.00,WUHU216DAVISVP2,2013-01-01 14:13:00,
2013-01-01 08:18:00,2.9,-2.1,30.26,South,188,3.0,5.0,79,0.00,,,0.00,WUHU216DAVISVP2,2013-01-01 14:18:00,
2013-01-01 08:23:00,3.1,-1.9,30.26,SSW,196,3.0,6.0,79,0.00,,,0.00,WUHU216DAVISVP2,2013-01-01 14:23:00,
2013-01-01 08:28:00,3.2,-1.8,30.26,SSW,198,3.0,7.0,79,0.00,,,0.00,WUHU216DAVISVP2,2013-01-01 14:28:00,
2013-01-01 08:33:00,3.3,-1.7,30.26,South,173,0.0,7.0,79,0.00,,,0.00,WUHU216DAVISVP2,2013-01-01 14:33:00,
2013-01-01 08:38:00,3.4,-1.6,30.26,South,186,3.0,7.0,79,0.00,,,0.00,WUHU216DAVISVP2,2013-01-01 14:38:00,
2013-01-01 08:43:00,3.5,-1.5,30.26,South,186,1.0,6.0,79,0.00,,,0.00,WUHU216DAVISVP2,2013-01-01 14:43:00,
2013-01-01 08:48:00,3.7,-1.3,30.26,SSW,192,3.0,7.0,79,0.00,,,0.00,WUHU216DAVISVP2,2013-01-01 14:48:00,
2013-01-01 08:53:00,3.8,-1.3,30.26,SSW,200,0.0,7.0,79,0.00,,,0.00,WUHU216DAVISVP2,2013-01-01 14:53:00,
2013-01-01 08:58:00,4.1,-1.0,30.25,SSW,198,6.0,6.0,79,0.00,,,0.00,WUHU216DAVISVP2,2013-01-01 14:58:00,
2013-01-01 09:03:00,4.3,-0.8,30.25,SSW,195,5.0,7.0,79,0.00,,,0.00,WUHU216DAVISVP2,2013-01-01 15:03:00,
2013-01-01 09:08:00,4.5,-0.6,30.25,SSW,192,5.0,7.0,79,0.00,,,0.00,WUHU216DAVISVP2,2013-01-01 15:08:00,
2013-01-01 09:13:00,4.6,-0.5,30.25,SSW,192,3.0,9.0,79,0.00,,,0.00,WUHU216DAVISVP2,2013-01-01 15:13:00,
2013-01-01 09:18:00,4.8,-0.3,30.25,SSW,195,5.0,10.0,79,0.00,,,0.00,WUHU216DAVISVP2,2013-01-01 15:18:00,
2013-01-01 09:23:00,5.0,-0.1,30.25,SSW,192,2.0,10.0,79,0.00,,,0.00,WUHU216DAVISVP2,2013-01-01 15:23:00,
2013-01-01 09:28:00,5.2,0.1,30.24,SSW,209,2.0,6.0,79,0.00,,,0.00,WUHU216DAVISVP2,2013-01-01 15:28:00,
2013-01-01 09:33:00,5.4,0.3,30.24,South,183,2.0,12.0,79,0.00,,,0.00,WUHU216DAVISVP2,2013-01-01 15:33:00,
2013-01-01 09:38:00,5.5,0.4,30.24,SSW,192,3.0,12.0,79,0.00,,,0.00,WUHU216DAVISVP2,2013-01-01 15:38:00,
2013-01-01 09:43:00,5.8,0.7,30.23,South,189,1.0,5.0,79,0.00,,,0.00,WUHU216DAVISVP2,2013-01-01 15:43:00,
2013-01-01 09:48:00,6.0,0.9,30.23,SSW,203,2.0,7.0,79,0.00,,,0.00,WUHU216DAVISVP2,2013-01-01 15:48:00,
2013-01-01 09:53:00,6.1,1.0,30.23,SSW,192,1.0,7.0,79,0.00,,,0.00,WUHU216DAVISVP2,2013-01-01 15:53:00,
2013-01-01 09:58:00,6.2,1.1,30.23,SSW,207,4.0,6.0,79,0.00,,,0.00,WUHU216DAVISVP2,2013-01-01 15:58:00,
2013-01-01 10:03:00,6.5,1.4,30.23,South,184,0.0,7.0,79,0.00,,,0.00,WUHU216DAVISVP2,2013-01-01 16:03:00,
2013-01-01 10:08:00,6.7,1.6,30.23,SSE,168,5.0,11.0,79,0.00,,,0.00,WUHU216DAVISVP2,2013-01-01 16:08:00,
2013-01-01 10:13:00,6.8,1.7,30.23,SSW,194,3.0,11.0,79,0.00,,,0.00,WUHU216DAVISVP2,2013-01-01 16:13:00,
2013-01-01 10:18:00,7.0,1.9,30.23,South,185,1.0,11.0,79,0.00,,,0.00,WUHU216DAVISVP2,2013-01-01 16:18:00,
2013-01-01 10:23:00,7.2,2.1,30.23,SSW,194,8.0,8.0,79,0.00,,,0.00,WUHU216DAVISVP2,2013-01-01 16:23:00,
2013-01-01 10:28:00,7.4,2.3,30.23,South,182,7.0,8.0,79,0.00,,,0.00,WUHU216DAVISVP2,2013-01-01 16:28:00,
2013-01-01 10:33:00,7.6,2.5,30.22,SSE,165,0.0,11.0,79,0.00,,,0.00,WUHU216DAVISVP2,2013-01-01 16:33:00,
2013-01-01 10:38:00,8.0,2.8,30.22,South,190,1.0,11.0,79,0.00,,,0.00,WUHU216DAVISVP2,2013-01-01 16:38:00,
2013-01-01 10:43:00,8.2,3.0,30.22,South,190,2.0,7.0,79,0.00,,,0.00,WUHU216DAVISVP2,2013-01-01 16:43:00,
2013-01-01 10:48:00,8.5,3.3,30.22,South,185,1.0,6.0,79,0.00,,,0.00,WUHU216DAVISVP2,2013-01-01 16:48:00,
2013-01-01 10:53:00,8.8,3.6,30.22,SSE,165,2.0,6.0,79,0.00,,,0.00,WUHU216DAVISVP2,2013-01-01 16:53:00,
2013-01-01 10:58:00,8.9,3.7,30.22,South,188,4.0,6.0,79,0.00,,,0.00,WUHU216DAVISVP2,2013-01-01 16:58:00,
2013-01-01 11:03:00,9.1,3.9,30.22,South,184,3.0,6.0,79,0.00,,,0.00,WUHU216DAVISVP2,2013-01-01 17:03:00,
2013-01-01 11:08:00,9.4,4.2,30.23,South,188,2.0,6.0,79,0.00,,,0.00,WUHU216DAVISVP2,2013-01-01 17:08:00,
2013-01-01 11:13:00,9.6,4.4,30.22,South,186,0.0,4.0,79,0.00,,,0.00,WUHU216DAVISVP2,2013-01-01 17:13:00,
2013-01-01 11:18:00,10.0,5.1,30.22,South,187,0.0,3.0,80,0.00,,,0.00,WUHU216DAVISVP2,2013-01-01 17:18:00,
2013-01-01 11:23:00,10.3,5.4,30.22,SSE,164,2.0,4.0,80,0.00,,,0.00,WUHU216DAVISVP2,2013-01-01 17:23:00,
2013-01-01 11:28:00,10.6,5.4,30.22,SSE,165,0.0,4.0,79,0.00,,,0.00,WUHU216DAVISVP2,2013-01-01 17:28:00,
2013-01-01 11:33:00,10.8,5.8,30.21,South,188,2.0,6.0,80,0.00,,,0.00,WUHU216DAVISVP2,2013-01-01 17:33:00,
2013-01-01 11:38:00,11.0,6.0,30.21,SSE,164,0.0,6.0,80,0.00,,,0.00,WUHU216DAVISVP2,2013-01-01 17:38:00,
2013-01-01 11:43:00,11.2,6.0,30.21,SSE,166,0.0,5.0,79,0.00,,,0.00,WUHU216DAVISVP2,2013-01-01 17:43:00,
2013-01-01 11:48:00,11.4,6.2,30.20,South,185,2.0,5.0,79,0.00,,,0.00,WUHU216DAVISVP2,2013-01-01 17:48:00,
2013-01-01 11:53:00,11.5,6.3,30.20,South,176,0.0,5.0,79,0.00,,,0.00,WUHU216DAVISVP2,2013-01-01 17:53:00,
2013-01-01 11:58:00,11.7,6.2,30.20,South,188,3.0,6.0,78,0.00,,,0.00,WUHU216DAVISVP2,2013-01-01 17:58:00,
2013-01-01 12:03:00,11.9,6.4,30.19,South,175,2.0,6.0,78,0.00,,,0.00,WUHU216DAVISVP2,2013-01-01 18:03:00,
2013-01-01 12:08:00,12.1,6.6,30.19,SSE,164,0.0,6.0,78,0.00,,,0.00,WUHU216DAVISVP2,2013-01-01 18:08:00,
2013-01-01 12:13:00,12.3,7.0,30.18,SSE,164,3.0,6.0,79,0.00,,,0.00,WUHU216DAVISVP2,2013-01-01 18:13:00,
2013-01-01 12:18:00,12.4,6.9,30.18,SSE,167,2.0,7.0,78,0.00,,,0.00,WUHU216DAVISVP2,2013-01-01 18:18:00,
2013-01-01 12:23:00,12.5,7.0,30.18,South,172,2.0,7.0,78,0.00,,,0.00,WUHU216DAVISVP2,2013-01-01 18:23:00,
2013-01-01 12:28:00,12.6,7.1,30.18,SSE,161,0.0,6.0,78,0.00,,,0.00,WUHU216DAVISVP2,2013-01-01 18:28:00,
2013-01-01 12:33:00,12.7,7.1,30.17,South,178,1.0,7.0,78,0.00,,,0.00,WUHU216DAVISVP2,2013-01-01 18:33:00,
2013-01-01 12:38:00,12.9,7.3,30.17,South,173,0.0,7.0,78,0.00,,,0.00,WUHU216DAVISVP2,2013-01-01 18:38:00,
2013-01-01 12:43:00,13.2,7.6,30.16,South,190,3.0,7.0,78,0.00,,,0.00,WUHU216DAVISVP2,2013-01-01 18:43:00,
2013-01-01 12:48:00,13.4,7.8,30.16,SSE,163,2.0,7.0,78,0.00,,,0.00,WUHU216DAVISVP2,2013-01-01 18:48:00,
2013-01-01 12:53:00,13.5,7.9,30.16,South,175,2.0,7.0,78,0.00,,,0.00,WUHU216DAVISVP2,2013-01-01 18:53:00,
2013-01-01 12:58:00,13.7,8.1,30.16,South,179,0.0,5.0,78,0.00,,,0.00,WUHU216DAVISVP2,2013-01-01 18:58:00,
2013-01-01 13:03:00,14.0,8.4,30.16,South,175,5.0,7.0,78,0.00,,,0.00,WUHU216DAVISVP2,2013-01-01 19:03:00,
2013-01-01 13:08:00,14.0,8.4,30.15,South,183,0.0,10.0,78,0.00,,,0.00,WUHU216DAVISVP2,2013-01-01 19:08:00,
2013-01-01 13:13:00,14.3,8.7,30.15,SSE,155,0.0,10.0,78,0.00,,,0.00,WUHU216DAVISVP2,2013-01-01 19:13:00,
2013-01-01 13:18:00,14.4,8.8,30.14,South,169,3.0,6.0,78,0.00,,,0.00,WUHU216DAVISVP2,2013-01-01 19:18:00,
2013-01-01 13:23:00,14.7,9.1,30.14,SE,146,3.0,5.0,78,0.00,,,0.00,WUHU216DAVISVP2,2013-01-01 19:23:00,
2013-01-01 13:28:00,14.8,9.2,30.14,South,173,0.0,7.0,78,0.00,,,0.00,WUHU216DAVISVP2,2013-01-01 19:28:00,
2013-01-01 13:33:00,15.0,9.4,30.14,South,178,4.0,7.0,78,0.00,,,0.00,WUHU216DAVISVP2,2013-01-01 19:33:00,
2013-01-01 13:38:00,15.2,9.6,30.14,South,190,0.0,6.0,78,0.00,,,0.00,WUHU216DAVISVP2,2013-01-01 19:38:00,
2013-01-01 13:43:00,15.4,9.8,30.14,SSE,161,1.0,6.0,78,0.00,,,0.00,WUHU216DAVISVP2,2013-01-01 19:43:00,
2013-01-01 13:48:00,15.4,9.8,30.13,SSE,163,0.0,11.0,78,0.00,,,0.00,WUHU216DAVISVP2,2013-01-01 19:48:00,
2013-01-01 13:53:00,15.5,9.9,30.13,SSW,192,0.0,11.0,78,0.00,,,0.00,WUHU216DAVISVP2,2013-01-01 19:53:00,
2013-01-01 13:58:00,15.7,10.1,30.13,South,190,0.0,5.0,78,0.00,,,0.00,WUHU216DAVISVP2,2013-01-01 19:58:00,
2013-01-01 14:03:00,15.8,10.2,30.13,South,190,1.0,5.0,78,0.00,,,0.00,WUHU216DAVISVP2,2013-01-01 20:03:00,
2013-01-01 14:08:00,16.0,10.4,30.12,South,184,0.0,5.0,78,0.00,,,0.00,WUHU216DAVISVP2,2013-01-01 20:08:00,
2013-01-01 14:13:00,16.3,10.9,30.12,South,169,0.0,4.0,79,0.00,,,0.00,WUHU216DAVISVP2,2013-01-01 20:13:00,
2013-01-01 14:18:00,16.6,10.9,30.12,South,189,1.0,5.0,78,0.00,,,0.00,WUHU216DAVISVP2,2013-01-01 20:18:00,
2013-01-01 14:23:00,16.9,11.5,30.12,SSW,192,2.0,5.0,79,0.00,,,0.00,WUHU216DAVISVP2,2013-01-01 20:23:00,
2013-01-01 14:28:00,17.0,11.3,30.12,SSE,161,1.0,9.0,78,0.00,,,0.00,WUHU216DAVISVP2,2013-01-01 20:28:00,
2013-01-01 14:33:00,16.8,11.1,30.12,South,177,0.0,10.0,78,0.00,,,0.00,WUHU216DAVISVP2,2013-01-01 20:33:00,
2013-01-01 14:38:00,16.6,10.9,30.11,South,178,3.0,10.0,78,0.00,,,0.00,WUHU216DAVISVP2,2013-01-01 20:38:00,
2013-01-01 14:43:00,16.6,10.9,30.11,South,180,1.0,7.0,78,0.00,,,0.00,WUHU216DAVISVP2,2013-01-01 20:43:00,
2013-01-01 14:48:00,16.6,10.9,30.11,South,180,5.0,7.0,78,0.00,,,0.00,WUHU216DAVISVP2,2013-01-01 20:48:00,
2013-01-01 14:53:00,16.8,11.4,30.11,South,177,0.0,8.0,79,0.00,,,0.00,WUHU216DAVISVP2,2013-01-01 20:53:00,
2013-01-01 14:58:00,16.9,11.5,30.11,South,184,0.0,8.0,79,0.00,,,0.00,WUHU216DAVISVP2,2013-01-01 20:58:00,
2013-01-01 15:03:00,17.0,11.6,30.11,South,180,0.0,8.0,79,0.00,,,0.00,WUHU216DAVISVP2,2013-01-01 21:03:00,
2013-01-01 15:08:00,17.0,11.6,30.11,SSE,158,3.0,10.0,79,0.00,,,0.00,WUHU216DAVISVP2,2013-01-01 21:08:00,
2013-01-01 15:13:00,17.1,11.7,30.11,South,180,4.0,10.0,79,0.00,,,0.00,WUHU216DAVISVP2,2013-01-01 21:13:00,
2013-01-01 15:18:00,17.2,11.8,30.10,South,185,1.0,9.0,79,0.00,,,0.00,WUHU216DAVISVP2,2013-01-01 21:18:00,
2013-01-01 15:23:00,17.4,12.0,30.10,South,183,4.0,10.0,79,0.00,,,0.00,WUHU216DAVISVP2,2013-01-01 21:23:00,
2013-01-01 15:28:00,17.5,12.4,30.10,SSE,168,5.0,10.0,80,0.00,,,0.00,WUHU216DAVISVP2,2013-01-01 21:28:00,
2013-01-01 15:33:00,17.7,12.6,30.10,South,180,0.0,6.0,80,0.00,,,0.00,WUHU216DAVISVP2,2013-01-01 21:33:00,
2013-01-01 15:38:00,17.7,12.3,30.10,South,185,2.0,8.0,79,0.00,,,0.00,WUHU216DAVISVP2,2013-01-01 21:38:00,
2013-01-01 15:43:00,17.7,12.3,30.10,South,177,0.0,8.0,79,0.00,,,0.00,WUHU216DAVISVP2,2013-01-01 21:43:00,
2013-01-01 15:48:00,17.9,12.5,30.09,South,182,0.0,6.0,79,0.00,,,0.00,WUHU216DAVISVP2,2013-01-01 21:48:00,
2013-01-01 15:53:00,17.9,12.5,30.09,South,188,3.0,7.0,79,0.00,,,0.00,WUHU216DAVISVP2,2013-01-01 21:53:00,
2013-01-01 15:58:00,18.0,12.9,30.09,South,172,0.0,7.0,80,0.00,,,0.00,WUHU216DAVISVP2,2013-01-01 21:58:00,
2013-01-01 16:03:00,18.1,13.0,30.09,SSE,150,0.0,6.0,80,0.00,,,0.00,WUHU216DAVISVP2,2013-01-01 22:03:00,
2013-01-01 16:08:00,18.3,13.2,30.09,SSE,163,3.0,7.0,80,0.00,,,0.00,WUHU216DAVISVP2,2013-01-01 22:08:00,
2013-01-01 16:13:00,18.4,13.3,30.09,South,190,0.0,7.0,80,0.00,,,0.00,WUHU216DAVISVP2,2013-01-01 22:13:00,
2013-01-01 16:18:00,18.5,13.4,30.09,South,176,0.0,5.0,80,0.00,,,0.00,WUHU216DAVISVP2,2013-01-01 22:18:00,
2013-01-01 16:23:00,18.6,13.5,30.09,South,176,3.0,5.0,80,0.00,,,0.00,WUHU216DAVISVP2,2013-01-01 22:23:00,
2013-01-01 16:28:00,18.8,13.7,30.08,South,177,0.0,5.0,80,0.00,,,0.00,WUHU216DAVISVP2,2013-01-01 22:28:00,
2013-01-01 16:33:00,18.9,14.0,30.08,South,184,0.0,5.0,81,0.00,,,0.00,WUHU216DAVISVP2,2013-01-01 22:33:00,
2013-01-01 16:38:00,19.0,14.1,30.08,South,171,0.0,5.0,81,0.00,,,0.00,WUHU216DAVISVP2,2013-01-01 22:38:00,
2013-01-01 16:43:00,19.1,14.2,30.08,South,175,2.0,7.0,81,0.00,,,0.00,WUHU216DAVISVP2,2013-01-01 22:43:00,
2013-01-01 16:48:00,19.2,14.3,30.08,South,180,2.0,7.0,81,0.00,,,0.00,WUHU216DAVISVP2,2013-01-01 22:48:00,
2013-01-01 16:53:00,19.3,14.4,30.08,South,172,4.0,5.0,81,0.00,,,0.00,WUHU216DAVISVP2,2013-01-01 22:53:00,
2013-01-01 16:58:00,19.7,15.1,30.07,SSW,192,2.0,7.0,82,0.00,,,0.00,WUHU216DAVISVP2,2013-01-01 22:58:00,
2013-01-01 17:03:00,20.0,15.4,30.07,SW,235,3.0,7.0,82,0.00,,,0.00,WUHU216DAVISVP2,2013-01-01 23:03:00,
2013-01-01 17:08:00,20.4,15.8,30.07,SSW,195,3.0,10.0,82,0.00,,,0.00,WUHU216DAVISVP2,2013-01-01 23:08:00,
2013-01-01 17:13:00,20.4,15.8,30.07,SSW,202,6.0,13.0,82,0.00,,,0.00,WUHU216DAVISVP2,2013-01-01 23:13:00,
2013-01-01 17:19:00,20.3,15.7,30.07,SSW,206,4.0,13.0,82,0.00,,,0.00,WUHU216DAVISVP2,2013-01-01 23:19:00,
2013-01-01 17:24:00,20.0,15.4,30.07,SSW,207,7.0,7.0,82,0.00,,,0.00,WUHU216DAVISVP2,2013-01-01 23:24:00,
2013-01-01 17:28:00,19.8,14.9,30.07,WSW,239,3.0,7.0,81,0.00,,,0.00,WUHU216DAVISVP2,2013-01-01 23:28:00,
2013-01-01 17:34:00,19.7,15.1,30.07,SW,222,2.0,7.0,82,0.00,,,0.00,WUHU216DAVISVP2,2013-01-01 23:34:00,
2013-01-01 17:38:00,19.7,15.1,30.07,SSW,205,2.0,6.0,82,0.00,,,0.00,WUHU216DAVISVP2,2013-01-01 23:38:00,
2013-01-01 17:44:00,19.6,15.0,30.07,SSW,202,0.0,6.0,82,0.00,,,0.00,WUHU216DAVISVP2,2013-01-01 23:44:00,
2013-01-01 17:49:00,19.6,15.0,30.07,SSW,209,2.0,6.0,82,0.00,,,0.00,WUHU216DAVISVP2,2013-01-01 23:49:00,
2013-01-01 17:54:00,19.6,15.0,30.07,SW,217,2.0,5.0,82,0.00,,,0.00,WUHU216DAVISVP2,2013-01-01 23:54:00,
2013-01-01 17:59:00,19.6,15.0,30.07,SSW,205,0.0,7.0,82,0.00,,,0.00,WUHU216DAVISVP2,2013-01-01 23:59:00,
2013-01-01 18:04:00,19.5,14.9,30.07,SSW,195,2.0,9.0,82,0.00,,,0.00,WUHU216DAVISVP2,2013-01-02 00:04:00,
2013-01-01 18:09:00,19.5,14.9,30.06,SSW,203,6.0,11.0,82,0.00,,,0.00,WUHU216DAVISVP2,2013-01-02 00:09:00,
2013-01-01 18:14:00,19.4,14.8,30.06,SW,219,5.0,13.0,82,0.00,,,0.00,WUHU216DAVISVP2,2013-01-02 00:14:00,
2013-01-01 18:19:00,19.4,14.8,30.06,South,189,2.0,13.0,82,0.00,,,0.00,WUHU216DAVISVP2,2013-01-02 00:19:00,
2013-01-01 18:24:00,19.4,14.8,30.06,SW,215,3.0,12.0,82,0.00,,,0.00,WUHU216DAVISVP2,2013-01-02 00:24:00,
2013-01-01 18:29:00,19.2,14.6,30.05,SW,215,2.0,14.0,82,0.00,,,0.00,WUHU216DAVISVP2,2013-01-02 00:29:00,
2013-01-01 18:34:00,19.0,14.4,30.05,SSW,193,4.0,14.0,82,0.00,,,0.00,WUHU216DAVISVP2,2013-01-02 00:34:00,
2013-01-01 18:39:00,19.0,14.7,30.06,SSW,200,6.0,10.0,83,0.00,,,0.00,WUHU216DAVISVP2,2013-01-02 00:39:00,
2013-01-01 18:44:00,18.9,14.6,30.06,SW,232,1.0,6.0,83,0.00,,,0.00,WUHU216DAVISVP2,2013-01-02 00:44:00,
2013-01-01 18:49:00,18.8,14.5,30.06,SSW,207,0.0,6.0,83,0.00,,,0.00,WUHU216DAVISVP2,2013-01-02 00:49:00,
2013-01-01 18:54:00,18.8,14.5,30.06,South,189,4.0,6.0,83,0.00,,,0.00,WUHU216DAVISVP2,2013-01-02 00:54:00,
2013-01-01 18:59:00,18.6,14.0,30.05,SSW,203,3.0,7.0,82,0.00,,,0.00,WUHU216DAVISVP2,2013-01-02 00:59:00,
2013-01-01 19:04:00,18.4,13.8,30.04,South,191,7.0,12.0,82,0.00,,,0.00,WUHU216DAVISVP2,2013-01-02 01:04:00,
2013-01-01 19:09:00,18.3,14.0,30.04,SSW,200,2.0,14.0,83,0.00,,,0.00,WUHU216DAVISVP2,2013-01-02 01:09:00,
2013-01-01 19:14:00,18.3,14.0,30.04,South,184,7.0,14.0,83,0.00,,,0.00,WUHU216DAVISVP2,2013-01-02 01:14:00,
2013-01-01 19:19:00,18.3,14.0,30.04,WSW,239,2.0,11.0,83,0.00,,,0.00,WUHU216DAVISVP2,2013-01-02 01:19:00,
2013-01-01 19:24:00,18.4,14.1,30.04,SSW,206,5.0,10.0,83,0.00,,,0.00,WUHU216DAVISVP2,2013-01-02 01:24:00,
2013-01-01 19:29:00,18.5,14.2,30.04,South,190,4.0,7.0,83,0.00,,,0.00,WUHU216DAVISVP2,2013-01-02 01:29:00,
2013-01-01 19:34:00,18.5,14.2,30.04,SW,225,4.0,9.0,83,0.00,,,0.00,WUHU216DAVISVP2,2013-01-02 01:34:00,
2013-01-01 19:39:00,18.6,14.3,30.04,South,173,3.0,9.0,83,0.00,,,0.00,WUHU216DAVISVP2,2013-01-02 01:39:00,
2013-01-01 19:44:00,18.6,14.3,30.03,SSW,194,3.0,8.0,83,0.00,,,0.00,WUHU216DAVISVP2,2013-01-02 01:44:00,
2013-01-01 19:49:00,18.6,14.3,30.03,SSW,208,4.0,10.0,83,0.00,,,0.00,WUHU216DAVISVP2,2013-01-02 01:49:00,
2013-01-01 19:54:00,18.6,14.3,30.03,South,188,1.0,10.0,83,0.00,,,0.00,WUHU216DAVISVP2,2013-01-02 01:54:00,
2013-01-01 19:59:00,18.7,14.4,30.03,South,191,2.0,13.0,83,0.00,,,0.00,WUHU216DAVISVP2,2013-01-02 01:59:00,
2013-01-01 20:04:00,18.7,14.4,30.03,SSW,197,1.0,13.0,83,0.00,,,0.00,WUHU216DAVISVP2,2013-01-02 02:04:00,
2013-01-01 20:09:00,18.5,14.2,30.03,SSW,206,6.0,11.0,83,0.00,,,0.00,WUHU216DAVISVP2,2013-01-02 02:09:00,
2013-01-01 20:14:00,18.3,14.0,30.04,SW,221,0.0,11.0,83,0.00,,,0.00,WUHU216DAVISVP2,2013-01-02 02:14:00,
2013-01-01 20:19:00,18.3,14.3,30.03,SSW,194,6.0,10.0,84,0.00,,,0.00,WUHU216DAVISVP2,2013-01-02 02:19:00,
2013-01-01 20:24:00,18.2,14.2,30.03,South,188,4.0,7.0,84,0.00,,,0.00,WUHU216DAVISVP2,2013-01-02 02:24:00,
2013-01-01 20:29:00,18.1,14.1,30.03,SSW,201,5.0,8.0,84,0.00,,,0.00,WUHU216DAVISVP2,2013-01-02 02:29:00,
2013-01-01 20:34:00,18.1,14.1,30.02,SSW,205,2.0,8.0,84,0.00,,,0.00,WUHU216DAVISVP2,2013-01-02 02:34:00,
2013-01-01 20:39:00,18.1,13.8,30.02,South,189,4.0,10.0,83,0.00,,,0.00,WUHU216DAVISVP2,2013-01-02 02:39:00,
2013-01-01 20:44:00,18.0,14.0,30.02,SSW,202,2.0,10.0,84,0.00,,,0.00,WUHU216DAVISVP2,2013-01-02 02:44:00,
2013-01-01 20:49:00,17.9,13.6,30.01,South,183,6.0,10.0,83,0.00,,,0.00,WUHU216DAVISVP2,2013-01-02 02:49:00,
2013-01-01 20:54:00,17.7,13.7,30.00,South,175,2.0,10.0,84,0.00,,,0.00,WUHU216DAVISVP2,2013-01-02 02:54:00,
2013-01-01 20:59:00,17.3,13.0,30.01,SSW,194,2.0,9.0,83,0.00,,,0.00,WUHU216DAVISVP2,2013-01-02 02:59:00,
2013-01-01 21:04:00,17.1,12.8,30.01,SSW,202,0.0,9.0,83,0.00,,,0.00,WUHU216DAVISVP2,2013-01-02 03:04:00,
2013-01-01 21:09:00,16.8,12.5,30.02,SSW,210,0.0,5.0,83,0.00,,,0.00,WUHU216DAVISVP2,2013-01-02 03:09:00,
2013-01-01 21:14:00,16.4,12.1,30.02,SSW,208,0.0,10.0,83,0.00,,,0.00,WUHU216DAVISVP2,2013-01-02 03:14:00,
2013-01-01 21:19:00,16.0,11.7,30.02,SW,236,0.0,11.0,83,0.00,,,0.00,WUHU216DAVISVP2,2013-01-02 03:19:00,
2013-01-01 21:24:00,15.7,11.2,30.01,SSW,193,2.0,11.0,82,0.00,,,0.00,WUHU216DAVISVP2,2013-01-02 03:24:00,
2013-01-01 21:29:00,15.5,11.0,30.00,SSW,193,3.0,11.0,82,0.00,,,0.00,WUHU216DAVISVP2,2013-01-02 03:29:00,
2013-01-01 21:34:00,15.1,10.6,30.00,South,185,4.0,11.0,82,0.00,,,0.00,WUHU216DAVISVP2,2013-01-02 03:34:00,
2013-01-01 21:39:00,14.9,10.4,30.00,SSW,198,3.0,9.0,82,0.00,,,0.00,WUHU216DAVISVP2,2013-01-02 03:39:00,
2013-01-01 21:44:00,14.6,10.1,30.00,SSW,196,3.0,9.0,82,0.00,,,0.00,WUHU216DAVISVP2,2013-01-02 03:44:00,
2013-01-01 21:49:00,14.4,9.9,30.00,SSW,194,1.0,7.0,82,0.00,,,0.00,WUHU216DAVISVP2,2013-01-02 03:49:00,
2013-01-01 21:54:00,14.2,9.7,30.00,South,188,3.0,7.0,82,0.00,,,0.00,WUHU216DAVISVP2,2013-01-02 03:54:00,
2013-01-01 21:59:00,14.0,9.5,30.00,SSW,194,0.0,7.0,82,0.00,,,0.00,WUHU216DAVISVP2,2013-01-02 03:59:00,
2013-01-01 22:04:00,13.8,9.3,30.00,SSW,200,2.0,9.0,82,0.00,,,0.00,WUHU216DAVISVP2,2013-01-02 04:04:00,
2013-01-01 22:09:00,13.6,9.1,29.99,South,188,3.0,9.0,82,0.00,,,0.00,WUHU216DAVISVP2,2013-01-02 04:09:00,
2013-01-01 22:14:00,13.4,8.9,29.99,SSW,199,2.0,7.0,82,0.00,,,0.00,WUHU216DAVISVP2,2013-01-02 04:14:00,
2013-01-01 22:19:00,13.4,8.9,29.99,South,187,0.0,10.0,82,0.00,,,0.00,WUHU216DAVISVP2,2013-01-02 04:19:00,
2013-01-01 22:24:00,13.3,8.6,29.99,SW,216,2.0,10.0,81,0.00,,,0.00,WUHU216DAVISVP2,2013-01-02 04:24:00,
2013-01-01 22:29:00,13.2,8.5,29.99,SSW,197,1.0,7.0,81,0.00,,,0.00,WUHU216DAVISVP2,2013-01-02 04:29:00,
2013-01-01 22:34:00,13.0,8.0,29.99,SSW,206,4.0,10.0,80,0.00,,,0.00,WUHU216DAVISVP2,2013-01-02 04:34:00,
2013-01-01 22:39:00,12.9,7.9,29.99,SSW,196,1.0,10.0,80,0.00,,,0.00,WUHU216DAVISVP2,2013-01-02 04:39:00,
2013-01-01 22:44:00,12.7,7.7,29.99,South,186,1.0,7.0,80,0.00,,,0.00,WUHU216DAVISVP2,2013-01-02 04:44:00,
2013-01-01 22:49:00,12.4,7.4,29.98,South,176,3.0,8.0,80,0.00,,,0.00,WUHU216DAVISVP2,2013-01-02 04:49:00,
2013-01-01 22:54:00,12.2,7.2,29.98,SSW,197,0.0,8.0,80,0.00,,,0.00,WUHU216DAVISVP2,2013-01-02 04:54:00,
2013-01-01 22:59:00,12.0,7.0,29.98,SSW,200,4.0,5.0,80,0.00,,,0.00,WUHU216DAVISVP2,2013-01-02 04:59:00,
2013-01-01 23:00:00,11.9,6.9,29.98,SSW,200,0.0,5.0,80,0.00,,,0.00,WUHU216DAVISVP2,2013-01-02 05:00:00,
2013-01-01 23:01:00,11.8,6.8,29.99,SSW,200,0.0,5.0,80,0.00,,,0.00,WUHU216DAVISVP2,2013-01-02 05:01:00,
2013-01-01 23:06:00,11.6,6.6,29.99,South,188,0.0,5.0,80,0.00,,,0.00,WUHU216DAVISVP2,2013-01-02 05:06:00,
2013-01-01 23:11:00,11.4,6.4,29.99,South,189,0.0,4.0,80,0.00,,,0.00,WUHU216DAVISVP2,2013-01-02 05:11:00,
2013-01-01 23:16:00,11.2,6.2,29.99,South,189,0.0,0.0,80,0.00,,,0.00,WUHU216DAVISVP2,2013-01-02 05:16:00,
2013-01-01 23:21:00,11.1,6.1,29.99,South,190,0.0,0.0,80,0.00,,,0.00,WUHU216DAVISVP2,2013-01-02 05:21:00,
2013-01-01 23:26:00,11.1,6.1,29.99,South,188,0.0,0.0,80,0.00,,,0.00,WUHU216DAVISVP2,2013-01-02 05:26:00,
2013-01-01 23:31:00,11.3,6.6,29.99,South,182,0.0,0.0,81,0.00,,,0.00,WUHU216DAVISVP2,2013-01-02 05:31:00,
2013-01-01 23:36:00,11.3,6.6,29.98,South,185,0.0,0.0,81,0.00,,,0.00,WUHU216DAVISVP2,2013-01-02 05:36:00,
2013-01-01 23:41:00,11.5,6.5,29.98,South,186,0.0,0.0,80,0.00,,,0.00,WUHU216DAVISVP2,2013-01-02 05:41:00,
2013-01-01 23:46:00,11.6,6.9,29.98,South,185,0.0,0.0,81,0.00,,,0.00,WUHU216DAVISVP2,2013-01-02 05:46:00,
2013-01-01 23:51:00,11.8,7.1,29.98,South,174,0.0,4.0,81,0.00,,,0.00,WUHU216DAVISVP2,2013-01-02 05:51:00,
2013-01-01 23:56:00,12.0,7.3,29.98,South,175,0.0,6.0,81,0.00,,,0.00,WUHU216DAVISVP2,2013-01-02 05:56:00,